Regional Weather Roundup
Issued by NWS

Home | Current Version | Previous Version | Graphics & Text | Print | Product List | Glossary On
Versions: 1 2 3 4 5 6 7 8 9 10 11 12 13 14 15 16 17 18 19 20 21 22 23 24 25 26 27 28 29 30 31 32 33 34 35 36 37 38 39 40 41 42 43 44 45 46 47 48 49 50
521
ASUS44 KJAN 230210
RWRMS

MISSISSIPPI HOURLY WEATHER ROUNDUP
NATIONAL WEATHER SERVICE JACKSON MS
900 PM CDT MON SEP 22 2014

NOTE: "FAIR: INDICATES FEW OR NO CLOUDS BELOW 12,000 FEET WITH NO
SIGNIFICANT WEATHER AND/OR OBSTRUCTIONS TO VISIBILITY.

MSZ001>002-007>008-010>013-018>021-025>028-034>036-230300-
NORTHWEST MISSISSIPPI

CITY           SKY/WX    TMP DP  RH WIND       PRES   REMARKS
CLARKSDALE       N/A     61  55  82 N7        30.18R
CLEVELAND      FAIR      63  53  69 N6        30.16R
GREENWOOD      CLEAR     62  55  77 N6        30.14R
GREENVILLE     CLEAR     68  50  52 N9        30.14R
GRENADA        FAIR      64  54  68 N6        30.16R
OLIVE BRANCH   CLEAR     61  57  88 N7        30.19R
OXFORD         FAIR      59  54  82 CALM      30.19R
TUNICA         CLEAR     61  54  77 N7        30.19R
$$

MSZ003>006-009-014>017-022>024-029>033-037>039-230300-
NORTHEAST MISSISSIPPI

CITY           SKY/WX    TMP DP  RH WIND       PRES   REMARKS
COLUMBUS AFB   CLEAR     64  54  70 N5        30.13R
CORINTH          N/A     63  50  63 N5        30.17R
GOLDN TRIANGLE CLEAR     64  50  59 N7        30.13R
STARKVILLE     FAIR      63  54  72 CALM      30.14R
TUPELO         CLEAR     63  52  67 NE7       30.15R
$$

MSZ040-058-230300-
CENTRAL MISSISSIPPI

CITY           SKY/WX    TMP DP  RH WIND       PRES   REMARKS
JACKSON INTL   CLEAR     73  54  51 N10       30.11R
JACKSON HAWKNS CLEAR     71  53  52 N6        30.12R
MERIDIAN KEY   CLEAR     68  53  58 N9        30.10R
MERIDIAN NAS   CLEAR     67  52  58 N7        30.11R
RAYMOND        FAIR      68  63  83 N3        30.12R
VICKSBURG      CLEAR     70  54  56 N9        30.12R
$$

MSZ059>079-230300-
SOUTH MISSISSIPPI

CITY           SKY/WX    TMP DP  RH WIND       PRES   REMARKS
BROOKHAVEN     FAIR      70  54  56 CALM      30.11R
COLUMBIA       FAIR      68  55  64 NE6       30.07R
HATTIESBURG    CLEAR     72  54  53 N3        30.07R
MCCOMB         CLEAR     72  54  53 CALM      30.09R
NATCHEZ        CLEAR     68  54  60 CALM      30.11R
PINE BELT      CLEAR     66  52  59 N7        30.09R
$$

MSZ080>082-230300-
COASTAL MISSISSIPPI

CITY           SKY/WX    TMP DP  RH WIND       PRES   REMARKS
BAY ST LOUIS   CLEAR     70  57  64 N6        30.04R
BILOXI         CLEAR     76  61  59 N8        30.03R
PASCAGOULA     CLEAR     67  65  93 N3        30.03R
GULFPORT       CLEAR     75  57  53 N6        30.03R
$$



USA.gov is the U.S. government's official web portal to all federal, state and local government web resources and services.